Location: Stamford Observatory
(41.1241°N, 73.5498°W)
Time: 11:45:12
(UTC-04:00)

Daily predictions for brighter satellites

Satellite Brightness Start Highest point End
(mag) Time Altitude Azimuth Time Altitude Azimuth Time Altitude Azimuth
Cosmos 2227 Rocket 3.9 20:59:54 10° ESE 21:02:20 13° E 21:04:47 10° ENE
ERS-1 Rocket 3.0 21:01:57 10° SSE 21:06:59 89° ENE 21:12:04 10° NNW
ALOS 3.6 21:02:38 10° SSW 21:07:01 40° W 21:11:25 10° NNW
OAO 2 Rocket 4.2 21:03:47 10° SW 21:08:27 32° SSE 21:13:08 10° ESE
Cosmos 1300 3.8 21:07:53 10° NNE 21:11:15 28° ENE 21:14:35 10° SE
Cosmos 1500 Rocket 4.4 21:07:06 10° SSW 21:11:24 56° W 21:15:46 10° N
Envisat 3.2 21:06:29 10° SSE 21:11:28 59° ENE 21:16:27 10° N
ERBS 4.0 21:10:10 10° SSE 21:12:25 16° ESE 21:14:40 10° E
Tiangong 1 1.1 21:12:07 10° WSW 21:15:11 57° SSE 21:18:13 10° E
CZ-4 SHROUD 4.2 21:12:48 10° SE 21:15:37 32° ENE 21:18:27 10° N
SL-16 R/B 4.5 21:15:40 10° NNE 21:16:58 11° NE 21:18:15 10° NE
NOSS 3-1 (C) 3.4 21:11:30 10° SSW 21:17:13 61° ESE 21:23:32 10° NE
Cosmos 2333 Rocket 3.6 21:15:48 10° N 21:20:34 26° NE 21:25:17 10° ESE
Cosmos 2151 2.9 21:18:25 10° S 21:22:36 86° E 21:26:50 10° N
Delta 2 Rocket 3.8 21:22:14 10° WSW 21:25:39 33° S 21:28:17 13° ESE
SL-23 DEB 4.1 21:20:55 10° WNW 21:26:26 76° SW 21:29:29 14° SE
ARGOS 4.2 21:21:59 10° SE 21:26:36 32° ENE 21:31:18 10° N
Cosmos 2058 3.0 21:23:12 10° S 21:27:12 56° E 21:31:14 10° NNE
Cosmos 2112 Rocket 4.1 21:22:48 10° NNW 21:28:03 79° WSW 21:33:19 10° SSE
Cosmos 2297 Rocket 3.8 21:26:15 11° SE 21:28:53 15° E 21:32:03 10° ENE
Cosmos 1937 Rocket 4.2 21:24:55 10° SSE 21:29:32 33° E 21:34:09 10° NE
Cosmos 2219 Rocket 3.0 21:27:27 10° N 21:32:41 39° ENE 21:37:10 13° SE
COSMOS 2428 2.7 21:27:05 10° NNW 21:32:47 76° ENE 21:37:58 13° SSE
Cosmos 1455 4.4 21:31:36 10° NE 21:33:19 13° ENE 21:35:01 10° E
Nimbus 7 Rocket 4.4 21:27:49 10° NNE 21:33:43 83° ESE 21:39:35 10° SSW
deb Chang Zheng 4 4.1 21:32:45 10° N 21:37:02 62° WNW 21:41:19 10° SSW
Cosmos 2298 Rocket 4.0 21:35:28 10° S 21:40:45 70° ESE 21:46:03 10° NNE
Cosmos 1726 2.5 21:37:41 10° N 21:41:23 50° E 21:44:08 17° SSE
Sich 1 3.2 21:40:25 10° S 21:44:43 54° E 21:49:00 10° NNE
PSLV R/B 3.2 21:44:56 15° S 21:47:23 79° WSW 21:50:27 10° NNW
Cosmos 1939 Rocket 3.9 21:44:38 10° S 21:48:21 41° W 21:52:03 10° NNW
CZ-4B R/B 3.7 21:44:55 10° NNE 21:50:06 57° E 21:55:10 10° S
Cosmos 1633 Rocket 3.1 21:46:59 11° S 21:51:07 60° E 21:55:25 10° NNE
Cosmos 2242 Rocket 3.9 21:47:03 10° N 21:51:26 50° E 21:54:27 19° SSE
Cosmos 2237 4.5 21:48:34 10° NNW 21:54:17 69° WSW 21:59:09 14° S
Meteor 1-4 Rocket 2.9 21:51:08 10° N 21:54:48 52° ENE 21:56:51 23° SE
Cosmos 1980 4.4 21:49:53 10° N 21:55:15 42° ENE 21:59:03 18° ESE
SPOT 5 3.1 21:51:24 11° S 21:55:50 66° WSW 22:00:42 10° NNW
USA 245 2.1 21:59:33 38° SE 22:00:14 58° ENE 22:02:28 10° N
Cosmos 2219 4.2 21:57:17 10° SW 22:02:51 50° WNW 22:08:27 10° NNE
Cosmos 292 Rocket 3.7 22:00:16 10° NNW 22:05:03 78° ENE 22:08:03 23° SSE
Cosmos 2237 Rocket 2.7 22:01:47 10° NNW 22:07:19 49° ENE 22:10:50 22° SE
MetOp-B 4.4 22:03:01 13° S 22:07:45 68° WSW 22:13:06 10° NNW
Cosmos 1805 Rocket 4.4 22:03:48 10° SSW 22:08:08 51° W 22:12:28 10° N
H-2A R/B 2.9 22:05:52 20° SE 22:09:00 39° ENE 22:14:01 10° N
Cosmos 2333 4.4 22:05:06 10° NNW 22:10:48 68° WSW 22:15:00 19° S
Cosmos 2082 3.9 22:07:50 12° S 22:12:56 52° ESE 22:18:28 10° NNE
DELTA 2 R/B(2) 3.4 22:12:59 10° W 22:14:46 63° S 22:14:48 63° S
Cosmos 1271 Rocket 2.6 22:11:07 10° N 22:14:59 89° E 22:17:01 27° S
Cosmos 1898 Rocket 3.8 22:10:28 10° SSW 22:15:36 67° WNW 22:20:50 10° NNE
DELTA 2 DEB (DPAF) 4.4 22:14:16 26° SE 22:16:32 54° ENE 22:20:55 10° N
Cosmos 2360 Rocket 4.2 22:12:21 10° NW 22:16:36 22° W 22:20:51 10° SSW
Landsat 7 4.1 22:14:43 26° SE 22:17:12 53° ENE 22:21:50 10° N
Cosmos 220 Rocket 4.0 22:14:12 10° SSW 22:18:35 85° WNW 22:23:04 10° NNE
CZ-4C R/B 3.3 22:18:52 35° SE 22:19:58 51° ENE 22:23:21 10° N
Iridium 2 3.6 22:19:29 29° S 22:21:18 73° E 22:25:10 10° N
SPOT 1/Viking Rocket 3.7 22:17:51 19° S 22:21:31 72° WSW 22:26:41 10° NNW
NOAA 11 4.2 22:18:01 22° SSE 22:21:39 90° NW 22:27:09 10° NNW
Cosmos 1125 Rocket 4.4 22:20:15 25° SE 22:21:46 29° E 22:26:19 10° NE
NOSS 3-1 (A) 3.9 22:16:31 10° SW 22:22:22 64° NW 22:28:54 10° NNE
Cosmos 1626 2.5 22:21:47 35° SE 22:22:48 45° E 22:26:25 10° NNE
Cosmos 1346 3.2 22:22:51 49° SE 22:23:13 54° E 22:26:11 10° NNE
H-2A R/B 4.5 22:21:21 10° SW 22:24:35 19° W 22:27:50 10° NW
Cosmos 1703 3.3 22:23:37 21° SSW 22:26:10 77° W 22:30:06 10° N
YAOGAN 6 3.9 22:27:34 18° SSW 22:29:48 34° W 22:33:08 10° NNW
OTV 4 2.3 22:28:31 10° WSW 22:29:40 19° SW 22:29:40 19° SW
Cosmos 1241 Rocket 4.4 22:25:48 10° SSW 22:31:58 83° ESE 22:38:16 10° NNE
Terra 2.1 22:31:05 31° SE 22:33:04 53° ENE 22:37:42 10° N
SL-08 RB Rocket 3.8 22:32:55 28° S 22:35:13 71° WSW 22:39:44 10° NNW
Nadezhda 1 Rocket 3.9 22:37:45 10° N 22:43:53 86° W 22:47:24 27° S
Spot 4 4.2 22:42:22 35° SE 22:44:08 54° ENE 22:48:53 10° N
ATLAS 2AS CENTAUR R/B 2.9 22:37:02 10° SSW 22:44:27 77° ESE 22:52:31 10° NE
Cosmos 1470 Rocket 3.7 22:42:22 26° SSW 22:44:44 71° W 22:49:04 10° N
Cosmos 2227 Rocket 2.2 22:39:55 10° SSW 22:45:34 82° WNW 22:51:17 10° NNE
Cosmos 1933 Rocket 3.7 22:43:16 26° SSW 22:45:44 73° W 22:50:13 10° N
ERBS 3.4 22:45:35 10° WSW 22:48:57 46° NW 22:52:20 10° NE
Cosmos 1703 Rocket 4.3 22:45:47 10° N 22:49:51 37° ENE 22:50:40 34° ESE
SAR-Lupe-2 3.6 22:49:41 56° ESE 22:50:07 62° ENE 22:53:41 10° N
NOSS 0 Rocket 4.2 22:44:15 10° NNW 22:50:19 60° WSW 22:53:27 29° S
Tiangong 1 1.4 22:48:42 10° W 22:51:47 62° N 22:52:17 51° NE
OAO 2 Rocket 3.7 22:47:46 10° WSW 22:52:48 44° S 22:53:39 40° SSE
ATLAS 3B R/B 2.9 22:48:59 10° NNW 22:55:59 65° NE 22:59:21 31° SE
Cosmos 1745 Rocket 4.5 22:52:10 14° SSW 22:57:33 58° W 23:03:39 10° N
SL-16 R/B 2.4 22:56:41 10° NNW 23:02:19 60° ENE 23:04:25 37° SE
Lacrosse 4 Rocket 1.9 22:58:18 10° NNW 23:02:41 55° ENE 23:03:42 44° ESE
DMSP B5D2-2 4.0 22:59:08 10° NNE 23:04:22 88° WNW 23:06:47 33° SSW
Cosmos 2333 Rocket 2.8 22:59:33 10° NW 23:05:06 50° WSW 23:07:32 31° SSW
Cosmos 1709 Rocket 3.9 23:02:50 35° S 23:05:32 74° E 23:11:38 10° N
BREEZE-M TANK 4.1 22:45:51 10° WSW 23:06:43 82° NNW 23:10:59 10° ENE
ARGOS 4.4 23:03:31 18° SSW 23:06:44 34° W 23:11:37 10° NNW
Cosmos 468 4.5 23:01:33 10° NNW 23:06:55 86° WSW 23:08:38 45° SSE
Cosmos 2221 Rocket 3.8 23:04:05 10° N 23:08:36 57° E 23:09:20 50° ESE
Cosmos 1455 3.1 23:05:39 10° NNW 23:09:16 42° W 23:10:08 36° SW
Aureole 2 Rocket 4.4 23:07:33 10° NNE 23:09:45 18° ENE 23:09:45 18° ENE
Cosmos 2297 Rocket 2.4 23:07:58 18° SSW 23:12:15 72° WNW 23:17:55 10° NNE
COS B Rocket 3.7 23:10:37 10° NNE 23:14:29 48° E 23:14:32 48° E
Cosmos 1933 3.2 23:11:02 10° N 23:15:06 80° E 23:15:26 72° SE
COSMOS 2455 2.8 23:09:46 10° NNW 23:15:51 86° ENE 23:17:55 44° SSE
Cosmos 2219 Rocket 3.5 23:11:40 10° NW 23:16:27 30° WSW 23:18:54 21° SW
NOSS 2-3 (E) 3.9 23:18:12 53° SSE 23:19:06 63° ESE 23:24:35 10° NE
Cosmos 1603 4.4 23:31:00 10° NNW 23:36:28 45° ENE 23:38:14 35° ESE
Cosmos 2181 Rocket 4.1 23:31:07 10° N 23:37:30 75° W 23:39:49 42° SSW
Cosmos 2251 Rocket 4.2 23:32:48 10° N 23:37:54 44° ENE 23:39:06 38° E
H-2A R/B 4.0 23:39:14 10° NE 23:42:10 26° ENE 23:42:10 26° ENE
CZ-4C R/B 3.8 23:36:51 10° NNW 23:43:21 39° NE 23:48:28 18° ESE
SeaSat 1 3.0 23:43:30 41° E 23:44:37 49° ENE 23:49:23 10° NNW
Cosmos 2184 Rocket 4.0 23:43:46 49° SSE 23:45:15 64° E 23:51:22 10° NNE
NOSS 2-3 (C) 4.0 23:44:46 43° SW 23:46:26 80° NW 23:52:08 10° NNE
H-2A R/B 3.6 23:46:30 22° SW 23:48:27 28° W 23:53:05 10° NW
ASTEX 1 4.1 23:46:11 10° NNE 23:50:45 38° E 23:50:45 38° E
Cosmos 2237 Rocket 3.7 23:46:34 10° NW 23:51:01 24° W 23:52:39 21° SW
Meteor 1-26 Rocket 4.2 23:46:21 10° NNW 23:51:59 77° W 23:53:14 55° SSW
FALCON 9 R/B 3.1 23:34:53 10° W 23:52:32 51° SSW 23:54:02 44° S
Cosmos 1733 Rocket 3.9 23:53:33 38° ENE 23:53:33 38° ENE 23:57:16 10° NNE
Cosmos 1869 Rocket 4.1 23:53:42 46° WSW 23:54:22 51° W 23:58:45 10° N
